(161502) = 2004 RP26 = 2005 YG7

Discovered at Palomar on 2004-09-06 by NEAT.

Orbit

Orbit type: Main Belt

Note: WebGL enabled browser required.

epoch2024-03-31.0
epoch JD2460400.5
perihelion date2022-10-10.98103
perihelion JD2459863.48103
argument of perihelion (°)63.28205
ascending node (°)353.74392
inclination (°)8.59131
eccentricity0.0735859
perihelion distance (AU)2.9489285
Tisserand w.r.t. Jupiter3.2
ΔV w.r.t. Earth (km/sec)11.0
semimajor axis (AU)3.1831646
mean anomaly (°)93.19762
mean daily motion (°/day)0.17354620
aphelion distance (AU)3.417
period (years)5.68
P-vector [x]0.54316665
P-vector [y]0.70747287
P-vector [z]0.45216382
Q-vector [x]-0.83946709
Q-vector [y]0.46803056
Q-vector [z]0.27612027
absolute magnitude15.3
phase slope0.15
uncertainty0
referenceMPEC 2024-E109
observations used538
oppositions16
arc length (days)11127
first opposition used1993
last opposition used2024
residual rms (arc-secs)0.78
perturbers coarse indicatorM-v
perturbers precise indicator003Ek
first observation date used1993-09-18.0
last observation date used2024-03-06.0
computer nameMPCLINUX
JD of orbit computation2456847.842805
perihelion JD uncertainty (days)3.9193E-04
argument of perihelion uncertainty (°)7.5985E-05
ascending node uncertainty (°)3.7282E-05
inclination uncertainty (°)1.0052E-05
eccentricity uncertainty 6.8051E-08
perihelion distance uncertainty (AU)2.2091E-07
Minimum Orbit Intersection Distances (in AU)
for orbit epoch: 2460400.5, reference: E2024-GF4
Mercury2.63868
Venus2.23805
Earth1.9728
Mars1.43166
Jupiter1.86689
Saturn6.06878
Uranus15.1658
Neptune26.842

Observations

548 total observations over interval: 1993 09 18.21181 – 2024 03 06.368139
These data are available for download (format description).

Date (UT) J2000 RA J2000 Dec Magn Location Ref
1993 09 18.21181 00 27 08.31 +05 17 26.0 19.7   809 – European Southern Observatory, La Silla MPS 275861
1993 09 18.22222 00 27 07.83 +05 17 23.7   809 – European Southern Observatory, La Silla MPS 275861
1993 09 18.23264 00 27 07.22 +05 17 21.6   809 – European Southern Observatory, La Silla MPS 275861
1999 10 12.27068 02 26 04.57 +23 02 03.1 19.5   704 – Lincoln Laboratory ETS, New Mexico MPS 213128
1999 10 12.28438 02 26 03.90 +23 02 03.8 19.3   704 – Lincoln Laboratory ETS, New Mexico MPS 213128
1999 10 12.32580 02 26 01.89 +23 02 04.5 19.5   704 – Lincoln Laboratory ETS, New Mexico MPS 213128
2004 09 06.26073 22 45 16.79 -11 13 36.5 19.2   644 – Palomar Mountain/NEAT MPS 112836
2004 09 06.28156 22 45 15.73 -11 13 39.5 19.0   644 – Palomar Mountain/NEAT MPS 112836
2004 09 06.30253 22 45 14.72 -11 13 41.7 19.0   644 – Palomar Mountain/NEAT MPS 112836
2004 09 07.23182 22 44 29.64 -11 15 43.9 19.3   704 – Lincoln Laboratory ETS, New Mexico MPS 112836
2004 09 07.24375 22 44 29.08 -11 15 46.0 20.3   704 – Lincoln Laboratory ETS, New Mexico MPS 112836
2004 09 07.25501 22 44 28.34 -11 15 45.6 20.2   704 – Lincoln Laboratory ETS, New Mexico MPS 112836
2004 09 07.26649 22 44 27.86 -11 15 47.2 20.4   704 – Lincoln Laboratory ETS, New Mexico MPS 112836
2004 09 07.27794 22 44 27.34 -11 15 50.2 19.9   704 – Lincoln Laboratory ETS, New Mexico MPS 112836
2004 10 15.09413 22 22 30.49 -11 36 29.4 20.7 V 691 – Steward Observatory, Kitt Peak-Spacewatch MPS 170834
2004 10 15.11122 22 22 30.23 -11 36 28.4 20.4 V 691 – Steward Observatory, Kitt Peak-Spacewatch MPS 170834
2004 10 15.12798 22 22 29.97 -11 36 27.0 20.4 V 691 – Steward Observatory, Kitt Peak-Spacewatch MPS 170834
2004 12 13.07381 22 44 16.16 -07 20 19.2 21.4 V 291 – LPL/Spacewatch II MPS 170834
2004 12 13.08989 22 44 16.95 -07 20 12.1 21.3 V 291 – LPL/Spacewatch II MPS 170834
2004 12 13.10035 22 44 17.56 -07 20 07.8 21.6 V 291 – LPL/Spacewatch II MPS 170834
2005 12 02.36280 04 26 27.96 +34 25 58.5 18.6 V 703 – Catalina Sky Survey MPS 170834
2005 12 02.36905 04 26 27.56 +34 25 57.8 19.1 V 703 – Catalina Sky Survey MPS 170834
2005 12 22.19939 04 08 46.39 +33 35 00.1 19.0 V 703 – Catalina Sky Survey MPS 156681
2005 12 22.19994 04 08 46.32 +33 34 59.3 19.4 V 703 – Catalina Sky Survey MPS 156681
2005 12 22.20752 04 08 46.03 +33 34 57.7 19.1 V 703 – Catalina Sky Survey MPS 156681
2005 12 22.20807 04 08 45.92 +33 34 57.9 19.1 V 703 – Catalina Sky Survey MPS 156681
2005 12 22.21576 04 08 45.63 +33 34 56.8 19.6 V 703 – Catalina Sky Survey MPS 156681
2005 12 22.21630 04 08 45.56 +33 34 55.9 18.9 V 703 – Catalina Sky Survey MPS 156681
2005 12 22.22452 04 08 45.13 +33 34 54.6 19.1 V 703 – Catalina Sky Survey MPS 156681
2005 12 22.22506 04 08 45.20 +33 34 54.0 19.1 V 703 – Catalina Sky Survey MPS 156681
2005 12 24.21849 04 07 21.35 +33 27 55.2 19.1   704 – Lincoln Laboratory ETS, New Mexico MPS 156681
2005 12 24.23171 04 07 20.77 +33 27 53.5 19.3   704 – Lincoln Laboratory ETS, New Mexico MPS 156681
2005 12 24.24486 04 07 20.16 +33 27 49.9 19.5   704 – Lincoln Laboratory ETS, New Mexico MPS 156681
2005 12 24.25790 04 07 19.59 +33 27 47.6 19.4   704 – Lincoln Laboratory ETS, New Mexico MPS 156681
2006 11 23.47914 10 49 52.05 +12 37 14.2 21.6 V 691 – Steward Observatory, Kitt Peak-Spacewatch MPS 190489
2006 11 23.49158 10 49 52.62 +12 37 10.1 21.1 V 691 – Steward Observatory, Kitt Peak-Spacewatch MPS 190489
2006 11 23.50403 10 49 53.19 +12 37 06.3 21.3 V 691 – Steward Observatory, Kitt Peak-Spacewatch MPS 190489
2006 11 28.48999 10 53 37.10 +12 14 22.3 21.5 V 691 – Steward Observatory, Kitt Peak-Spacewatch MPS 190489
2006 11 28.50509 10 53 37.73 +12 14 17.9 21.0 V 691 – Steward Observatory, Kitt Peak-Spacewatch MPS 190489
2006 11 28.51776 10 53 38.27 +12 14 15.3 21.6 V 691 – Steward Observatory, Kitt Peak-Spacewatch MPS 190489
2007 02 08.30254 10 55 26.06 +11 24 38.2   691 – Steward Observatory, Kitt Peak-Spacewatch MPS 198704
2007 02 08.32022 10 55 25.28 +11 24 41.2   691 – Steward Observatory, Kitt Peak-Spacewatch MPS 198704
2007 02 08.33792 10 55 24.52 +11 24 43.5   691 – Steward Observatory, Kitt Peak-Spacewatch MPS 198704
2007 02 25.25956 10 42 11.30 +12 11 33.5 19.7 V G96 – Mt. Lemmon Survey MPS 201507
2007 02 25.26723 10 42 10.90 +12 11 34.7 19.9 V G96 – Mt. Lemmon Survey MPS 201507
2007 02 25.27490 10 42 10.51 +12 11 35.9 19.9 V G96 – Mt. Lemmon Survey MPS 201507
2007 03 08.26092 10 33 07.83 +12 38 14.6 19.5 R 644 – Palomar Mountain/NEAT MPS 206168
2007 03 08.28134 10 33 06.83 +12 38 16.9 19.6 R 644 – Palomar Mountain/NEAT MPS 206168
2007 03 08.30177 10 33 05.79 +12 38 19.5 19.8 R 644 – Palomar Mountain/NEAT MPS 206168
2007 03 09.26632 10 32 19.95 +12 40 18.4 19.6 R 644 – Palomar Mountain/NEAT MPS 203039
2007 03 09.28677 10 32 18.90 +12 40 20.5 19.4 R 644 – Palomar Mountain/NEAT MPS 203039
2007 03 09.30717 10 32 17.93 +12 40 23.0 19.6 R 644 – Palomar Mountain/NEAT MPS 203039
2007 03 09.33252 10 32 16.65 +12 40 26.0 19.7 V 703 – Catalina Sky Survey MPS 202348
2007 03 09.33746 10 32 16.44 +12 40 26.1 19.7 V 703 – Catalina Sky Survey MPS 202348
2007 03 09.34242 10 32 16.08 +12 40 26.5 19.7 V 703 – Catalina Sky Survey MPS 202348
2007 03 09.34729 10 32 15.82 +12 40 24.8 19.1 V 703 – Catalina Sky Survey MPS 202348
2007 03 15.25957 10 27 46.22 +12 50 56.1 20.3 V G96 – Mt. Lemmon Survey MPS 203039
2007 03 15.26837 10 27 45.82 +12 50 56.8 20.3 V G96 – Mt. Lemmon Survey MPS 203039
2007 03 15.27716 10 27 45.43 +12 50 57.6 20.3 V G96 – Mt. Lemmon Survey MPS 203039
2007 03 15.28591 10 27 45.03 +12 50 58.5 20.3 V G96 – Mt. Lemmon Survey MPS 203039
2007 03 15.29686 10 27 44.60 +12 51 00.3 20.1 V 703 – Catalina Sky Survey MPS 203039
2007 03 15.30402 10 27 44.35 +12 51 01.2 20.1 V 703 – Catalina Sky Survey MPS 203039
2007 03 15.31115 10 27 44.10 +12 51 01.0 19.4 V 703 – Catalina Sky Survey MPS 203039
2007 03 15.31829 10 27 43.56 +12 51 00.9 20.8 V 703 – Catalina Sky Survey MPS 203039
2010 06 30.283652 00 36 25.812 +03 15 29.56   C51 – WISE MPS 903204
2010 06 30.415955 00 36 31.25 +03 16 20.4   C51 – WISE MPS 338608
2010 06 30.548259 00 36 36.72 +03 17 09.6   C51 – WISE MPS 338608
2010 06 30.680563 00 36 42.00 +03 17 57.9   C51 – WISE MPS 338608
2010 06 30.746650 00 36 44.74 +03 18 19.7   C51 – WISE MPS 338608
2010 06 30.812740 00 36 47.44 +03 18 43.8   C51 – WISE MPS 338608
2010 06 30.878955 00 36 50.00 +03 19 10.2   C51 – WISE MPS 338608
2010 06 30.945043 00 36 52.72 +03 19 34.1   C51 – WISE MPS 338608
2010 07 01.143563 00 37 00.689 +03 20 44.41   C51 – WISE MPS 903204
2010 07 01.275866 00 37 06.21 +03 21 33.2   C51 – WISE MPS 338608
2010 07 01.408170 00 37 11.482 +03 22 21.94   C51 – WISE MPS 903204
2010 09 02.42083 00 44 37.14 +06 42 01.8 20.0 V G96 – Mt. Lemmon Survey MPS 346942
2010 09 02.42837 00 44 36.88 +06 42 01.8 19.9 V G96 – Mt. Lemmon Survey MPS 346942
2010 09 02.43599 00 44 36.63 +06 42 01.6 20.1 V G96 – Mt. Lemmon Survey MPS 346942
2010 09 02.44360 00 44 36.38 +06 42 01.7 19.9 V G96 – Mt. Lemmon Survey MPS 346942
2010 09 08.33089 00 41 15.56 +06 38 55.6 19.4   704 – Lincoln Laboratory ETS, New Mexico MPS 386763
2010 09 08.34262 00 41 15.17 +06 38 54.6 20.1   704 – Lincoln Laboratory ETS, New Mexico MPS 386763
2010 09 08.35443 00 41 14.77 +06 38 53.9 20.0   704 – Lincoln Laboratory ETS, New Mexico MPS 386763
2010 09 10.36555 00 39 57.88 +06 36 59.0 20.5   704 – Lincoln Laboratory ETS, New Mexico MPS 349165
2010 09 10.37727 00 39 57.33 +06 36 57.6 20.6   704 – Lincoln Laboratory ETS, New Mexico MPS 349165
2010 09 10.38903 00 39 56.94 +06 36 57.5 20.0   704 – Lincoln Laboratory ETS, New Mexico MPS 349165
2010 09 10.40071 00 39 56.43 +06 36 56.9 20.1   704 – Lincoln Laboratory ETS, New Mexico MPS 349165
2010 09 13.489961 00 37 51.268 +06 33 14.23 19.74 r F51 – Pan-STARRS 1, Haleakala MPS 364967
2010 09 13.501827 00 37 50.756 +06 33 13.24 19.86 r F51 – Pan-STARRS 1, Haleakala MPS 364967
2010 09 14.03881 00 37 28.26 +06 32 27.6 19.5 V J75 – OAM Observatory, La Sagra MPS 349165
2010 09 14.05074 00 37 27.70 +06 32 26.2 19.4 V J75 – OAM Observatory, La Sagra MPS 349165
2010 09 14.06271 00 37 27.22 +06 32 25.5 19.8 V J75 – OAM Observatory, La Sagra MPS 349165
